Location: Sun City Center
(27.6996°N, 82.3528°W)
Time: 06:40:14
(UTC-04:00)

Cosmos 2084 Rocket - Visible Passes

Search period start: 31 October 2014 00:00
Search period end: 09 November 2014 23:00
Orbit: 548 x 647 km, 62.8° (Epoch: 29 October)

Date Brightness Start Highest point End Pass type
(mag) Time Alt. Az. Time Alt. Az. Time Alt. Az.
01 Nov 6.1 05:57:09 10° SSE 06:00:05 19° ESE 06:03:03 10° ENE visible
02 Nov 4.6 05:06:30 10° S 05:10:20 42° ESE 05:14:14 10° NE visible
03 Nov 3.2 05:17:37 17° SSW 05:20:40 84° WNW 05:24:49 10° NNE visible
04 Nov 6.6 03:53:16 10° E 03:53:16 10° E 03:53:28 10° E visible
04 Nov 3.8 05:30:05 32° W 05:31:06 38° WNW 05:34:59 10° N visible
05 Nov 6.4 04:05:07 12° ENE 04:05:07 12° ENE 04:05:31 10° ENE visible
05 Nov 4.8 05:41:53 19° NW 05:41:53 19° NW 05:44:39 10° N visible
